LINCON Weather Reports


Display with metric or nautical units.
time (UTC)temp
F
wind
direction
speed
MPH
gust
MPH
rain 1hr
in
rain 24hr
in
rain mn
in
humidity
%
barometer
mb
20260507165513 63 4 7.0 14.0 0.00 0.00 0.00 64 1017.1
20260507165013 63 345 6.0 14.0 0.00 0.00 0.00 64 1017.1
20260507164513 63 344 8.0 14.0 0.00 0.00 0.00 61 1017.1
20260507164013 63 338 8.0 14.0 0.00 0.00 0.00 60 1017.1
20260507163512 64 338 7.0 13.0 0.00 0.00 0.00 61 1017.1
20260507163014 63 0 5.0 13.0 0.00 0.00 0.00 65 1017.1
20260507162512 62 350 8.0 12.0 0.00 0.00 0.00 66 1017.2
20260507162013 61 343 6.0 13.0 0.00 0.00 0.00 67 1017.1
20260507161512 61 350 7.0 13.0 0.00 0.00 0.00 68 1017.2
20260507161012 60 338 10.0 13.0 0.00 0.00 0.00 68 1017.1
20260507160514 60 338 9.0 11.0 0.00 0.00 0.00 71 1017.2
20260507160013 59 350 6.0 11.0 0.00 0.00 0.00 74 1017.2
20260507155513 58 340 5.0 11.0 0.00 0.00 0.00 75 1017.2
20260507155014 57 340 6.0 10.0 0.00 0.00 0.00 77 1017.2
20260507154513 57 344 7.0 11.0 0.00 0.00 0.00 76 1017.2
20260507154012 57 338 7.0 11.0 0.00 0.00 0.00 76 1017.2
20260507153513 57 344 7.0 11.0 0.00 0.00 0.00 77 1017.3
20260507153013 56 338 7.0 9.0 0.00 0.00 0.00 78 1017.2
20260507152513 56 344 4.0 9.0 0.00 0.00 0.00 79 1017.3
20260507152013 56 348 6.0 9.0 0.00 0.00 0.00 80 1017.2
20260507151512 55 338 6.0 10.0 0.00 0.00 0.00 80 1017.1
20260507151013 55 350 6.0 10.0 0.00 0.00 0.00 81 1017.2
20260507150513 55 333 6.0 10.0 0.00 0.00 0.00 81 1017.2
20260507150014 55 329 1.0 9.0 0.00 0.00 0.00 82 1017.1
20260507145514 55 331 5.0 9.0 0.00 0.00 0.00 82 1017.2
20260507145013 54 337 5.0 9.0 0.00 0.00 0.00 82 1017.2
20260507144513 54 0 1.0 7.0 0.00 0.00 0.00 82 1017.2
20260507144013 54 337 0.0 7.0 0.00 0.00 0.00 83 1017.3
20260507143512 54 333 3.0 7.0 0.00 0.00 0.00 83 1017.2
20260507143013 54 0 0.0 0.0 0.00 0.00 0.00 83 1017.2
20260507142513 53 0 0.0 0.0 0.00 0.00 0.00 83 1017.1
20260507142014 53 0 0.0 7.0 0.00 0.00 0.00 83 1017.1
20260507141513 53 0 0.0 7.0 0.00 0.00 0.00 83 1017.1
20260507141014 53 354 0.0 7.0 0.00 0.00 0.00 83 1017.0
20260507140512 53 0 0.0 0.0 0.00 0.00 0.00 83 1017.0
20260507140013 53 0 0.0 0.0 0.00 0.00 0.00 83 1017.0
20260507135513 53 0 0.0 0.0 0.00 0.00 0.00 83 1016.9
20260507135013 53 0 0.0 0.0 0.00 0.00 0.00 83 1016.9
20260507134513 53 0 0.0 0.0 0.00 0.00 0.00 83 1016.8
20260507134013 53 0 0.0 0.0 0.00 0.00 0.00 83 1016.9
20260507133513 53 0 0.0 0.0 0.00 0.00 0.00 82 1016.9
20260507133014 53 0 0.0 8.0 0.00 0.00 0.00 82 1016.9
20260507132513 53 0 0.0 8.0 0.00 0.00 0.00 82 1016.8
20260507132012 53 350 0.0 8.0 0.00 0.00 0.00 82 1016.8
20260507131513 53 0 4.0 4.0 0.00 0.00 0.00 82 1016.8
20260507131013 53 0 0.0 2.0 0.00 0.00 0.00 82 1016.9
20260507130513 53 338 0.0 2.0 0.00 0.00 0.00 82 1016.8
20260507130013 53 0 0.0 0.0 0.00 0.00 0.00 82 1016.9
20260507125513 53 0 0.0 6.0 0.00 0.00 0.00 82 1016.9
20260507125013 53 350 0.0 6.0 0.00 0.00 0.00 82 1016.9
20260507124513 53 336 0.0 6.0 0.00 0.00 0.00 82 1016.8
20260507124013 54 0 0.0 0.0 0.00 0.00 0.00 82 1016.8
20260507123512 54 0 0.0 6.0 0.00 0.00 0.00 82 1016.9
20260507122513 54 322 0.0 6.0 0.00 0.00 0.00 82 1017.0
20260507122013 54 355 0.0 3.0 0.00 0.00 0.00 82 1017.1
20260507121512 54 0 0.0 5.0 0.00 0.00 0.00 82 1017.1
20260507121013 54 0 0.0 5.0 0.00 0.00 0.00 82 1017.1
20260507120513 54 357 0.0 5.0 0.00 0.00 0.00 82 1017.1
20260507120012 54 0 0.0 0.0 0.00 0.00 0.00 83 1017.1
20260507115512 54 0 0.0 6.0 0.00 0.00 0.00 83 1017.1
20260507115013 54 0 0.0 6.0 0.00 0.00 0.00 83 1017.2
20260507114513 54 357 0.0 6.0 0.00 0.00 0.00 83 1017.2
20260507114012 54 338 0.0 6.0 0.00 0.00 0.00 83 1017.2
20260507113513 54 340 2.0 4.0 0.00 0.00 0.00 83 1017.3
20260507113012 54 0 1.0 1.0 0.00 0.00 0.00 83 1017.2
20260507112514 54 0 0.0 0.0 0.00 0.00 0.00 83 1017.2
20260507112013 54 0 0.0 3.0 0.00 0.00 0.00 83 1017.3
20260507111512 54 0 0.0 3.0 0.00 0.00 0.00 83 1017.3
20260507111012 54 354 0.0 3.0 0.00 0.00 0.00 84 1017.3
20260507110512 54 0 0.0 0.0 0.00 0.00 0.00 83 1017.3
20260507110012 54 0 0.0 0.0 0.00 0.00 0.00 83 1017.3
20260507105513 54 0 0.0 8.0 0.00 0.00 0.00 83 1017.3
20260507105013 54 0 0.0 8.0 0.00 0.00 0.00 83 1017.3
20260507104512 54 354 0.0 8.0 0.00 0.00 0.00 83 1017.4
20260507104016 54 345 1.0 8.0 0.00 0.00 0.00 83 1017.4
20260507103512 54 0 0.0 6.0 0.00 0.00 0.00 83 1017.5
20260507103012 54 0 1.0 6.0 0.00 0.00 0.00 82 1017.6
20260507102512 54 333 0.0 6.0 0.00 0.00 0.00 82 1017.6
20260507102012 54 0 2.0 6.0 0.00 0.00 0.00 82 1017.7
20260507101512 55 338 0.0 6.0 0.00 0.00 0.00 82 1017.7
20260507101012 54 347 0.0 2.0 0.00 0.00 0.00 82 1017.7
20260507100512 54 0 0.0 0.0 0.00 0.00 0.00 82 1017.7
20260507100012 54 0 0.0 0.0 0.00 0.00 0.00 82 1017.8
20260507095512 54 0 0.0 0.0 0.00 0.00 0.00 82 1017.8
20260507095012 55 0 0.0 6.0 0.00 0.00 0.00 82 1017.8
20260507094513 55 0 0.0 6.0 0.00 0.00 0.00 82 1017.8
20260507094012 55 330 0.0 6.0 0.00 0.00 0.00 82 1017.9
20260507093512 55 0 0.0 0.0 0.00 0.00 0.00 82 1017.9
20260507093012 55 0 0.0 6.0 0.00 0.00 0.00 83 1017.9
20260507092512 55 0 0.0 6.0 0.00 0.00 0.00 83 1018.0
20260507092012 55 341 0.0 6.0 0.00 0.00 0.00 83 1018.0
20260507091513 55 0 0.0 0.0 0.00 0.00 0.00 83 1018.1
20260507091012 55 0 0.0 0.0 0.00 0.00 0.00 83 1018.1
20260507090513 55 0 0.0 0.0 0.00 0.00 0.00 83 1018.1
20260507090012 55 0 0.0 0.0 0.00 0.00 0.00 83 1018.2
20260507085512 55 0 0.0 0.0 0.00 0.00 0.00 83 1018.2
20260507085013 55 0 0.0 0.0 0.00 0.00 0.00 84 1018.2
20260507084512 55 0 0.0 0.0 0.00 0.00 0.00 84 1018.2
20260507084013 55 0 0.0 0.0 0.00 0.00 0.00 84 1018.3
20260507083512 55 0 0.0 0.0 0.00 0.00 0.00 84 1018.3
20260507083012 55 0 0.0 0.0 0.00 0.00 0.00 83 1018.2
20260507082512 55 0 0.0 0.0 0.00 0.00 0.00 83 1018.3
20260507082012 55 0 0.0 0.0 0.00 0.00 0.00 83 1018.3
20260507081512 55 0 0.0 0.0 0.00 0.00 0.00 83 1018.2
20260507081012 55 0 0.0 0.0 0.00 0.00 0.00 83 1018.2
20260507080513 55 0 0.0 7.0 0.00 0.00 0.00 84 1018.2
20260507080012 55 0 0.0 7.0 0.00 0.00 0.00 84 1018.2
20260507075512 55 343 0.0 7.0 0.00 0.00 0.00 84 1018.2
20260507075012 55 330 1.0 12.0 0.00 0.00 0.00 84 1018.3
20260507074515 55 351 0.0 12.0 0.00 0.00 0.00 84 1018.2
20260507074012 55 333 0.0 12.0 0.00 0.00 0.00 84 1018.2
20260507073512 55 348 5.0 10.0 0.00 0.00 0.00 85 1018.2
20260507073016 55 340 4.0 9.0 0.00 0.00 0.00 85 1018.2
20260507072512 55 0 0.0 4.0 0.00 0.00 0.00 85 1018.2
20260507072012 56 352 0.0 10.0 0.00 0.00 0.00 85 1018.2
20260507071512 56 0 2.0 10.0 0.00 0.00 0.00 85 1018.1
20260507071013 56 344 0.0 10.0 0.00 0.00 0.00 85 1018.1
20260507070512 56 354 1.0 8.0 0.00 0.00 0.00 85 1018.2
20260507070016 56 326 3.0 14.0 0.00 0.00 0.00 85 1018.2
20260507065512 56 340 0.0 14.0 0.00 0.00 0.00 85 1018.2
20260507065012 56 345 0.0 14.0 0.00 0.00 0.00 85 1018.2
20260507064513 56 341 3.0 12.0 0.00 0.00 0.00 85 1018.2
20260507064015 56 348 2.0 12.0 0.00 0.00 0.00 85 1018.2
20260507063512 56 334 0.0 12.0 0.00 0.00 0.00 85 1018.2
20260507063012 56 340 7.0 10.0 0.00 0.00 0.00 85 1018.3
20260507062513 56 331 0.0 7.0 0.00 0.00 0.00 85 1018.3
20260507062013 56 355 1.0 7.0 0.00 0.00 0.00 85 1018.3
20260507061512 56 0 0.0 12.0 0.00 0.00 0.00 85 1018.3
20260507061013 56 334 0.0 12.0 0.00 0.00 0.00 85 1018.4
20260507060513 56 337 5.0 12.0 0.00 0.00 0.00 85 1018.4
20260507060012 56 350 4.0 9.0 0.00 0.00 0.00 85 1018.4
20260507055513 56 357 4.0 11.0 0.00 0.00 0.00 85 1018.4
20260507055017 56 344 2.0 11.0 0.00 0.00 0.00 85 1018.5
20260507054513 56 341 6.0 11.0 0.00 0.00 0.00 86 1018.5
20260507054013 56 345 7.0 11.0 0.00 0.00 0.00 86 1018.5
20260507053512 56 341 5.0 11.0 0.00 0.00 0.00 86 1018.5
20260507053012 56 350 4.0 11.0 0.00 0.00 0.00 87 1018.5
20260507052512 56 345 6.0 11.0 0.00 0.00 0.00 88 1018.5
20260507052013 56 338 4.0 11.0 0.00 0.00 0.00 88 1018.5
20260507051512 56 338 6.0 11.0 0.00 0.00 0.00 88 1018.5
20260507051012 56 344 6.0 11.0 0.00 0.00 0.00 88 1018.5
20260507050513 56 352 6.0 11.0 0.00 0.00 0.00 89 1018.5
20260507050012 56 333 6.0 11.0 0.00 0.00 0.00 89 1018.5
20260507045512 56 337 6.0 11.0 0.00 0.00 0.00 89 1018.5
20260507045012 56 357 7.0 11.0 0.00 0.00 0.00 89 1018.5
20260507044512 56 343 7.0 13.0 0.00 0.00 0.00 89 1018.6
20260507044016 56 337 8.0 13.0 0.00 0.00 0.00 89 1018.6
20260507043512 56 338 6.0 13.0 0.00 0.00 0.00 89 1018.6
20260507043014 56 355 6.0 12.0 0.00 0.00 0.00 89 1018.6
20260507042512 56 338 7.0 11.0 0.00 0.00 0.00 88 1018.6
20260507042012 56 343 5.0 10.0 0.00 0.00 0.00 88 1018.6
20260507041512 56 340 8.0 10.0 0.00 0.00 0.00 88 1018.6
20260507041012 56 347 6.0 8.0 0.00 0.00 0.00 88 1018.6
20260507040512 57 340 0.0 8.0 0.00 0.00 0.00 88 1018.5
20260507040013 57 337 1.0 11.0 0.00 0.00 0.00 88 1018.5
20260507035513 57 348 6.0 11.0 0.00 0.00 0.00 88 1018.5
20260507035012 57 343 5.0 11.0 0.00 0.00 0.00 88 1018.5
20260507034514 57 0 2.0 10.0 0.00 0.00 0.00 88 1018.5
20260507034012 57 345 0.0 10.0 0.00 0.00 0.00 88 1018.4
20260507033513 57 350 6.0 9.0 0.00 0.00 0.00 87 1018.4
20260507033013 57 338 6.0 8.0 0.00 0.00 0.00 87 1018.3
20260507032512 57 0 0.0 8.0 0.00 0.00 0.00 87 1018.3
20260507032013 57 348 0.0 8.0 0.00 0.00 0.00 86 1018.3
20260507031516 57 340 4.0 8.0 0.00 0.00 0.00 86 1018.3
20260507031012 57 343 2.0 8.0 0.00 0.00 0.00 86 1018.3
20260507030512 57 343 0.0 8.0 0.00 0.00 0.00 86 1018.3
20260507030012 57 348 0.0 8.0 0.00 0.00 0.00 86 1018.3
20260507025512 57 350 3.0 8.0 0.00 0.00 0.00 85 1018.3
20260507025012 57 331 1.0 8.0 0.00 0.00 0.00 85 1018.3
20260507024512 58 338 0.0 8.0 0.00 0.00 0.00 85 1018.3
20260507024012 58 341 6.0 8.0 0.00 0.00 0.00 84 1018.2
20260507023512 58 351 5.0 8.0 0.00 0.00 0.00 84 1018.2
20260507023014 58 347 5.0 8.0 0.00 0.00 0.00 83 1018.2
20260507022512 58 0 0.0 0.0 0.00 0.00 0.00 83 1018.2
20260507022012 58 0 0.0 0.0 0.00 0.00 0.00 82 1018.2
20260507021512 58 0 0.0 0.0 0.00 0.00 0.00 81 1018.2
20260507021012 59 0 0.0 0.0 0.00 0.00 0.00 81 1018.2
20260507020512 59 0 0.0 0.0 0.00 0.00 0.00 81 1018.2
20260507020013 59 0 0.0 0.0 0.00 0.00 0.00 81 1018.3
20260507015513 59 0 0.0 0.0 0.00 0.00 0.00 80 1018.3
20260507015012 59 0 0.0 0.0 0.00 0.00 0.00 80 1018.4
20260507014512 59 0 0.0 0.0 0.00 0.00 0.00 80 1018.4
20260507014013 59 0 0.0 0.0 0.00 0.00 0.00 80 1018.4
20260507013512 60 0 0.0 0.0 0.00 0.00 0.00 80 1018.4
20260507013014 60 0 0.0 0.0 0.00 0.00 0.00 79 1018.5
20260507012515 60 0 0.0 0.0 0.00 0.00 0.00 79 1018.5
20260507012012 60 0 0.0 0.0 0.00 0.00 0.00 79 1018.5
20260507011513 60 0 0.0 6.0 0.00 0.00 0.00 79 1018.4
20260507011012 60 319 0.0 6.0 0.00 0.00 0.00 79 1018.5
20260507010512 60 355 0.0 6.0 0.00 0.00 0.00 79 1018.6
20260507010012 60 0 0.0 2.0 0.00 0.00 0.00 79 1018.6
20260507005512 60 0 0.0 2.0 0.00 0.00 0.00 79 1018.6
20260507005012 60 344 0.0 2.0 0.00 0.00 0.00 79 1018.6
20260507004512 60 0 0.0 0.0 0.00 0.00 0.00 78 1018.6
20260507004012 60 0 0.0 0.0 0.00 0.00 0.00 78 1018.6
20260507003512 60 0 0.0 0.0 0.00 0.00 0.00 78 1018.7
20260507003014 61 0 0.0 0.0 0.00 0.00 0.00 78 1018.6
20260507002512 61 0 0.0 0.0 0.00 0.00 0.00 78 1018.6
20260507002013 61 0 0.0 0.0 0.00 0.00 0.00 78 1018.6
20260507001512 61 0 0.0 0.0 0.00 0.00 0.00 78 1018.6
20260507001013 61 0 0.0 0.0 0.00 0.00 0.00 78 1018.7
20260507000512 61 0 0.0 0.0 0.00 0.00 0.00 78 1018.7
20260507000016 61 0 0.0 0.0 0.00 0.00 0.00 78 1018.7
20260506235512 61 0 0.0 0.0 0.00 0.00 0.00 78 1018.8
20260506235012 61 0 0.0 0.0 0.00 0.00 0.00 78 1018.8
20260506234513 61 0 0.0 0.0 0.00 0.00 0.00 78 1018.7
20260506234015 61 0 0.0 0.0 0.00 0.00 0.00 77 1018.8
20260506233514 61 0 0.0 0.0 0.00 0.00 0.00 77 1018.8
20260506233012 61 0 0.0 0.0 0.00 0.00 0.00 77 1018.9
20260506232512 61 0 0.0 0.0 0.00 0.00 0.00 76 1018.8
20260506232012 61 0 0.0 5.0 0.00 0.00 0.00 76 1018.9
20260506231512 62 0 0.0 5.0 0.00 0.00 0.00 76 1018.9
20260506230512 62 0 0.0 0.0 0.00 0.00 0.00 75 1018.9
20260506230013 62 0 0.0 0.0 0.00 0.00 0.00 75 1019.0
20260506225512 62 0 0.0 3.0 0.00 0.00 0.00 75 1019.0
20260506225012 62 0 0.0 3.0 0.00 0.00 0.00 75 1019.0
20260506224512 62 330 0.0 3.0 0.00 0.00 0.00 74 1019.0
20260506224013 62 324 0.0 4.0 0.00 0.00 0.00 74 1019.1
20260506223512 63 0 0.0 4.0 0.00 0.00 0.00 74 1019.1
20260506223016 63 0 0.0 4.0 0.00 0.00 0.00 74 1019.2
20260506222512 63 324 0.0 6.0 0.00 0.00 0.00 74 1019.2
20260506222012 63 337 0.0 6.0 0.00 0.00 0.00 73 1019.3
20260506221512 63 0 0.0 6.0 0.00 0.00 0.00 74 1019.2
20260506221012 63 329 0.0 6.0 0.00 0.00 0.00 74 1019.2
20260506220512 63 336 1.0 6.0 0.00 0.00 0.00 74 1019.1
20260506220012 63 327 0.0 6.0 0.00 0.00 0.00 74 1019.1
20260506215512 62 0 0.0 0.0 0.00 0.00 0.00 74 1019.1
20260506215012 62 0 0.0 0.0 0.00 0.00 0.00 74 1019.1
20260506214512 62 0 0.0 0.0 0.00 0.00 0.00 73 1019.0
20260506214012 62 0 0.0 0.0 0.00 0.00 0.00 73 1019.0
20260506213512 63 0 0.0 0.0 0.00 0.00 0.00 73 1018.9
20260506213012 63 0 0.0 0.0 0.00 0.00 0.00 73 1018.9
20260506212513 63 0 0.0 0.0 0.00 0.00 0.00 73 1018.9
20260506212012 63 0 0.0 0.0 0.00 0.00 0.00 73 1019.0
20260506211512 63 0 0.0 0.0 0.00 0.00 0.00 73 1019.0
20260506211012 62 0 0.0 0.0 0.00 0.00 0.00 73 1019.0
20260506210512 62 0 0.0 0.0 0.00 0.00 0.00 73 1019.0
20260506210012 62 0 0.0 0.0 0.00 0.00 0.00 73 1019.0
20260506205512 62 0 0.0 0.0 0.00 0.00 0.00 74 1019.0
20260506205013 62 0 0.0 0.0 0.00 0.00 0.00 74 1018.9
20260506204512 62 0 0.0 0.0 0.00 0.00 0.00 74 1018.9
20260506204012 62 0 0.0 0.0 0.00 0.00 0.00 75 1018.9
20260506203512 62 0 0.0 0.0 0.00 0.00 0.00 75 1018.8
20260506203012 62 0 0.0 0.0 0.00 0.00 0.00 74 1018.8
20260506202512 62 0 0.0 0.0 0.00 0.00 0.00 75 1018.8
20260506202011 62 0 0.0 0.0 0.00 0.00 0.00 75 1018.8
20260506201512 61 0 0.0 0.0 0.00 0.00 0.00 75 1018.8
20260506201012 61 0 0.0 0.0 0.00 0.00 0.00 74 1018.8
20260506200513 61 0 0.0 0.0 0.00 0.00 0.00 75 1018.8
20260506200012 61 0 0.0 0.0 0.00 0.00 0.00 75 1018.8
20260506195511 61 0 0.0 0.0 0.00 0.00 0.00 75 1018.8
20260506195012 61 0 0.0 0.0 0.00 0.00 0.00 77 1018.9
20260506194513 61 0 0.0 0.0 0.00 0.00 0.00 77 1018.9
20260506194012 60 0 0.0 0.0 0.00 0.00 0.00 77 1018.8
20260506193512 60 0 0.0 0.0 0.00 0.00 0.00 77 1018.8
20260506193013 60 0 0.0 0.0 0.00 0.00 0.00 77 1018.8
20260506192512 60 0 0.0 0.0 0.00 0.00 0.00 77 1018.8
20260506192012 60 0 0.0 0.0 0.00 0.00 0.00 77 1018.8
20260506191512 60 0 0.0 0.0 0.00 0.00 0.00 77 1018.8
20260506191012 60 0 0.0 0.0 0.00 0.00 0.00 77 1018.7
20260506190511 60 0 0.0 0.0 0.00 0.00 0.00 77 1018.8
20260506190018 60 0 0.0 0.0 0.00 0.00 0.00 77 1018.8
20260506185513 60 0 0.0 0.0 0.00 0.00 0.00 76 1018.8
20260506185012 60 0 0.0 0.0 0.00 0.00 0.00 76 1018.8
20260506184512 60 0 0.0 0.0 0.00 0.00 0.00 76 1018.8
20260506184012 61 0 0.0 0.0 0.00 0.00 0.00 76 1018.7
20260506183512 61 0 0.0 0.0 0.00 0.00 0.00 76 1018.7
20260506183012 61 0 0.0 0.0 0.00 0.00 0.00 76 1018.7
20260506182512 61 0 0.0 0.0 0.00 0.00 0.00 76 1018.6
20260506182011 61 0 0.0 0.0 0.00 0.00 0.00 76 1018.6
20260506181514 61 0 0.0 0.0 0.00 0.00 0.00 76 1018.5
20260506181012 61 0 0.0 0.0 0.00 0.00 0.00 76 1018.4
20260506180512 60 0 0.0 0.0 0.00 0.00 0.00 76 1018.4
20260506180012 60 0 0.0 0.0 0.00 0.00 0.00 76 1018.3
20260506175629 60 0 0.0 0.0 0.00 0.00 0.00 76 1018.3
20260506175512 60 0 0.0 0.0 0.00 0.00 0.00 76 1018.3
20260506175012 60 0 0.0 0.0 0.00 0.00 0.00 76 1018.2
20260506174512 60 0 0.0 0.0 0.00 0.00 0.00 77 1018.2
20260506174012 60 0 0.0 0.0 0.00 0.00 0.00 77 1018.1
20260506173512 59 0 0.0 0.0 0.00 0.00 0.00 78 1018.1
20260506173012 59 0 0.0 0.0 0.00 0.00 0.00 78 1018.1
20260506172513 59 0 0.0 0.0 0.00 0.00 0.00 78 1018.1
20260506172012 59 0 0.0 0.0 0.00 0.00 0.00 79 1018.1
20260506171512 59 0 0.0 0.0 0.00 0.00 0.00 79 1018.0
20260506171012 59 0 0.0 0.0 0.00 0.00 0.00 79 1018.1
20260506170514 59 0 0.0 0.0 0.00 0.00 0.00 80 1018.0
20260506170012 59 0 0.0 0.0 0.00 0.00 0.00 80 1017.9